FIN6EH ESSA-EFHK

Flight info

Callsign FIN6EH
Flight time 0h 39m
Altitude 29000
Route TOVRI N851 RIKUM DCT RIRIP Y364 LAKUT
Aircraft A321/M-SADE1E2E3FGIJ1M3RWXYZ/LB1

Departure

Time 2026-04-23 18:54
Airport Stockholm-Arlanda Airport (ESSA)

Arrival

Time 2026-04-23 19:33
Airport Helsinki Vantaa Airport (EFHK)
Time Latitude Longitude Altitude Speed Heading
2026-04-23 18:21 59.64371 17.92799 112 ft 0 kts 40°
2026-04-23 18:44 59.64362 17.92783 111 ft 4 kts 41°
2026-04-23 18:44 59.64345 17.92755 110 ft 2 kts 41°
2026-04-23 18:44 59.64325 17.92721 110 ft 4 kts 41°
2026-04-23 18:44 59.64312 17.92698 112 ft 0 kts 41°
2026-04-23 18:48 59.64315 17.92703 111 ft 2 kts 38°
2026-04-23 18:48 59.64329 17.92640 112 ft 10 kts 257°
2026-04-23 18:48 59.64275 17.92524 114 ft 12 kts 219°
2026-04-23 18:48 59.64234 17.92460 112 ft 11 kts 230°
2026-04-23 18:49 59.64242 17.92333 115 ft 10 kts 294°
2026-04-23 18:49 59.64278 17.92195 116 ft 13 kts 297°
2026-04-23 18:49 59.64324 17.92018 113 ft 16 kts 297°
2026-04-23 18:49 59.64415 17.91934 112 ft 17 kts
2026-04-23 18:50 59.64496 17.91961 111 ft 19 kts 11°
2026-04-23 18:50 59.64692 17.92036 108 ft 24 kts 11°
2026-04-23 18:50 59.64860 17.92093 107 ft 25 kts 10°
2026-04-23 18:50 59.65034 17.92158 107 ft 26 kts 11°
2026-04-23 18:51 59.65206 17.92219 107 ft 24 kts 10°
2026-04-23 18:51 59.65362 17.92276 105 ft 21 kts
2026-04-23 18:51 59.65472 17.92422 104 ft 20 kts 46°
2026-04-23 18:51 59.65534 17.92645 105 ft 18 kts 75°
2026-04-23 18:52 59.65563 17.92878 109 ft 17 kts 76°
2026-04-23 18:52 59.65592 17.93108 108 ft 17 kts 76°
2026-04-23 18:52 59.65625 17.93292 108 ft 11 kts 51°
2026-04-23 18:52 59.65678 17.93402 109 ft 11 kts 46°
2026-04-23 18:53 59.65732 17.93510 112 ft 10 kts 46°
2026-04-23 18:53 59.65781 17.93608 114 ft 11 kts 45°
2026-04-23 18:53 59.65844 17.93740 114 ft 16 kts 50°
2026-04-23 18:53 59.65918 17.94208 121 ft 67 kts 76°
2026-04-23 18:54 59.66092 17.95590 122 ft 137 kts 76°
2026-04-23 18:54 59.66357 17.97701 406 ft 164 kts 74°
2026-04-23 18:54 59.66624 17.99855 1186 ft 160 kts 72°
2026-04-23 18:54 59.66887 18.01982 1951 ft 159 kts 70°
2026-04-23 18:55 59.67166 18.04189 2344 ft 176 kts 70°
2026-04-23 18:55 59.67462 18.06707 2608 ft 199 kts 71°
2026-04-23 18:55 59.67782 18.09530 2870 ft 222 kts 72°
2026-04-23 18:55 59.68133 18.12670 3134 ft 248 kts 72°
2026-04-23 18:56 59.68382 18.14935 3537 ft 257 kts 73°
2026-04-23 18:56 59.68890 18.19652 4595 ft 267 kts 73°
2026-04-23 18:56 59.69280 18.23297 5389 ft 273 kts 72°
2026-04-23 18:56 59.69678 18.27007 6240 ft 278 kts 72°
2026-04-23 18:57 59.70084 18.30771 7071 ft 281 kts 72°
2026-04-23 18:57 59.70703 18.34403 7902 ft 276 kts 58°
2026-04-23 18:57 59.71566 18.37818 8761 ft 277 kts 58°
2026-04-23 18:57 59.72433 18.41242 9658 ft 279 kts 58°
2026-04-23 18:58 59.73309 18.44699 10313 ft 288 kts 58°
2026-04-23 18:58 59.74251 18.48386 10530 ft 311 kts 58°
2026-04-23 18:58 59.75261 18.52345 10819 ft 330 kts 58°
2026-04-23 18:58 59.76301 18.56454 11424 ft 336 kts 58°
2026-04-23 18:59 59.77355 18.60647 12123 ft 341 kts 58°
2026-04-23 18:59 59.78410 18.64878 12834 ft 344 kts 58°
2026-04-23 18:59 59.79474 18.69156 13529 ft 348 kts 57°
2026-04-23 18:59 59.80555 18.73499 14180 ft 352 kts 57°
2026-04-23 19:00 59.81640 18.77869 14843 ft 354 kts 57°
2026-04-23 19:00 59.82734 18.82275 15510 ft 356 kts 57°
2026-04-23 19:00 59.83832 18.86701 16169 ft 359 kts 57°
2026-04-23 19:00 59.84941 18.91176 16833 ft 361 kts 56°
2026-04-23 19:01 59.86056 18.95680 17498 ft 364 kts 56°
2026-04-23 19:01 59.87176 19.00215 18158 ft 367 kts 56°
2026-04-23 19:01 59.88304 19.04800 18724 ft 369 kts 56°
2026-04-23 19:01 59.89434 19.09408 19295 ft 372 kts 56°
2026-04-23 19:02 59.90184 19.12471 19672 ft 373 kts 56°
2026-04-23 19:02 59.91713 19.18715 20447 ft 376 kts 56°
2026-04-23 19:02 59.92865 19.23435 21032 ft 379 kts 56°
2026-04-23 19:02 59.93901 19.27698 21544 ft 381 kts 56°
2026-04-23 19:03 59.95056 19.32466 22104 ft 383 kts 55°
2026-04-23 19:03 59.96223 19.37271 22640 ft 385 kts 55°
2026-04-23 19:03 59.97245 19.42293 23158 ft 397 kts 63°
2026-04-23 19:03 59.97938 19.47695 23637 ft 404 kts 66°
2026-04-23 19:04 59.98605 19.53176 24050 ft 407 kts 66°
2026-04-23 19:04 59.99273 19.58684 24464 ft 409 kts 66°
2026-04-23 19:04 59.99943 19.64227 24877 ft 412 kts 66°
2026-04-23 19:04 60.00616 19.69813 25281 ft 415 kts 66°
2026-04-23 19:05 60.01295 19.75430 25682 ft 417 kts 66°
2026-04-23 19:05 60.01979 19.81082 26082 ft 419 kts 66°
2026-04-23 19:05 60.02664 19.86777 26481 ft 422 kts 66°
2026-04-23 19:05 60.03348 19.92497 26866 ft 425 kts 67°
2026-04-23 19:06 60.04034 19.98265 27250 ft 427 kts 67°
2026-04-23 19:06 60.04719 20.04071 27642 ft 430 kts 67°
2026-04-23 19:06 60.05403 20.09904 28028 ft 432 kts 67°
2026-04-23 19:06 60.06092 20.15778 28392 ft 435 kts 67°
2026-04-23 19:07 60.06783 20.21686 28766 ft 437 kts 67°
2026-04-23 19:07 60.07473 20.27614 28932 ft 434 kts 67°
2026-04-23 19:07 60.08132 20.33431 28957 ft 424 kts 67°
2026-04-23 19:08 60.09418 20.44857 28956 ft 419 kts 66°
2026-04-23 19:08 60.10719 20.56205 28959 ft 417 kts 66°
2026-04-23 19:09 60.12009 20.67554 28957 ft 417 kts 67°
2026-04-23 19:09 60.13268 20.78923 28951 ft 417 kts 66°
2026-04-23 19:10 60.14523 20.90268 28961 ft 417 kts 66°
2026-04-23 19:10 60.15772 21.01631 28963 ft 417 kts 66°
2026-04-23 19:11 60.17014 21.13005 28972 ft 417 kts 66°
2026-04-23 19:11 60.18239 21.24378 28970 ft 416 kts 66°
2026-04-23 19:12 60.19248 21.33831 28965 ft 416 kts 66°
2026-04-23 19:12 60.20664 21.47139 28969 ft 416 kts 66°
2026-04-23 19:13 60.21867 21.58537 28973 ft 415 kts 66°
2026-04-23 19:13 60.23051 21.69837 28970 ft 415 kts 66°
2026-04-23 19:14 60.24226 21.81186 28692 ft 410 kts 66°
2026-04-23 19:14 60.24799 21.86785 28425 ft 407 kts 66°
2026-04-23 19:14 60.25370 21.92349 28153 ft 404 kts 66°
2026-04-23 19:14 60.25933 21.97861 27841 ft 399 kts 66°
2026-04-23 19:15 60.26487 22.03332 27370 ft 395 kts 66°
2026-04-23 19:15 60.27030 22.08732 26881 ft 391 kts 66°
2026-04-23 19:15 60.27568 22.14090 26436 ft 388 kts 66°
2026-04-23 19:15 60.28101 22.19402 25984 ft 385 kts 66°
2026-04-23 19:16 60.28637 22.24741 25544 ft 383 kts 66°
2026-04-23 19:16 60.29157 22.29913 25114 ft 381 kts 66°
2026-04-23 19:16 60.29680 22.35144 24694 ft 379 kts 66°
2026-04-23 19:17 60.29844 22.46071 23797 ft 399 kts 82°
2026-04-23 19:17 60.29658 22.51655 23356 ft 397 kts 82°
2026-04-23 19:17 60.29459 22.57258 22751 ft 394 kts 83°
2026-04-23 19:17 60.29261 22.62688 22175 ft 391 kts 83°
2026-04-23 19:18 60.29061 22.68151 21603 ft 389 kts 83°
2026-04-23 19:18 60.28864 22.73569 21049 ft 386 kts 83°
2026-04-23 19:18 60.28671 22.78935 20430 ft 382 kts 83°
2026-04-23 19:18 60.28482 22.84260 19801 ft 379 kts 83°
2026-04-23 19:19 60.28096 22.94794 18563 ft 374 kts 84°
2026-04-23 19:19 60.27902 23.00001 17948 ft 371 kts 84°
2026-04-23 19:20 60.27515 23.10282 16669 ft 364 kts 85°
2026-04-23 19:20 60.27321 23.15354 16192 ft 361 kts 85°
2026-04-23 19:20 60.27126 23.20387 15723 ft 359 kts 85°
2026-04-23 19:20 60.26930 23.25381 15270 ft 356 kts 86°
2026-04-23 19:21 60.26731 23.30339 14811 ft 354 kts 86°
2026-04-23 19:21 60.26334 23.40163 13902 ft 350 kts 86°
2026-04-23 19:21 60.26136 23.45029 13420 ft 348 kts 87°
2026-04-23 19:22 60.25937 23.49854 12964 ft 345 kts 87°
2026-04-23 19:22 60.25804 23.53019 12804 ft 338 kts 87°
2026-04-23 19:22 60.25404 23.62423 11860 ft 334 kts 88°
2026-04-23 19:23 60.25206 23.67063 11427 ft 332 kts 88°
2026-04-23 19:23 60.25005 23.71733 10998 ft 329 kts 88°
2026-04-23 19:23 60.24810 23.76246 10575 ft 327 kts 88°
2026-04-23 19:24 60.24414 23.85298 10046 ft 312 kts 89°
2026-04-23 19:24 60.24221 23.89576 9904 ft 302 kts 89°
2026-04-23 19:24 60.23851 23.97848 9273 ft 296 kts 89°
2026-04-23 19:25 60.23485 24.06053 8491 ft 293 kts 89°
2026-04-23 19:25 60.23118 24.14174 7782 ft 289 kts 90°
2026-04-23 19:26 60.22748 24.22148 6948 ft 284 kts 91°
2026-04-23 19:26 60.22560 24.26096 6510 ft 282 kts 91°
2026-04-23 19:27 60.22191 24.33844 5597 ft 279 kts 92°
2026-04-23 19:27 60.21643 24.45256 4514 ft 264 kts 92°
2026-04-23 19:28 60.21289 24.52351 4160 ft 242 kts 92°
2026-04-23 19:28 60.20969 24.58782 3913 ft 222 kts 92°
2026-04-23 19:29 60.20819 24.61776 3731 ft 209 kts 92°
2026-04-23 19:29 60.20990 24.67167 3250 ft 183 kts 63°
2026-04-23 19:30 60.22411 24.70977 2797 ft 165 kts 43°
2026-04-23 19:30 60.23191 24.72672 2573 ft 165 kts 43°
2026-04-23 19:30 60.24710 24.75981 2119 ft 158 kts 44°
2026-04-23 19:31 60.25455 24.77605 1922 ft 156 kts 44°
2026-04-23 19:31 60.26169 24.79168 1693 ft 145 kts 43°
2026-04-23 19:31 60.26843 24.80635 1485 ft 141 kts 44°
2026-04-23 19:31 60.27500 24.82071 1287 ft 139 kts 44°
2026-04-23 19:32 60.28152 24.83507 1087 ft 139 kts 44°
2026-04-23 19:32 60.28809 24.84950 845 ft 141 kts 45°
2026-04-23 19:32 60.29470 24.86407 671 ft 142 kts 46°
2026-04-23 19:32 60.30143 24.87867 518 ft 142 kts 44°
2026-04-23 19:33 60.30815 24.89334 333 ft 142 kts 46°
2026-04-23 19:33 60.31485 24.90810 160 ft 142 kts 46°
2026-04-23 19:33 60.32374 24.92765 171 ft 36 kts 51°
2026-04-23 19:34 60.32445 24.93118 175 ft 21 kts 73°
2026-04-23 19:34 60.32482 24.93408 174 ft 23 kts 77°
2026-04-23 19:34 60.32595 24.94041 171 ft 26 kts 50°
2026-04-23 19:35 60.32716 24.94310 173 ft 26 kts 46°
2026-04-23 19:35 60.32843 24.94579 174 ft 27 kts 48°
2026-04-23 19:35 60.32963 24.94853 177 ft 26 kts 47°
2026-04-23 19:35 60.33087 24.95125 178 ft 26 kts 46°
2026-04-23 19:36 60.33199 24.95377 181 ft 20 kts 56°
2026-04-23 19:36 60.33162 24.95602 181 ft 19 kts 136°
2026-04-23 19:36 60.33057 24.95785 181 ft 20 kts 148°
2026-04-23 19:36 60.32924 24.95941 176 ft 24 kts 150°
2026-04-23 19:37 60.32769 24.96123 173 ft 26 kts 150°
2026-04-23 19:37 60.32646 24.96267 172 ft 15 kts 149°
2026-04-23 19:37 60.32583 24.96342 173 ft 7 kts 149°
2026-04-23 19:37 60.32543 24.96387 174 ft 3 kts 150°
2026-04-23 19:38 60.32542 24.96388 174 ft 0 kts 150°
2026-04-23 19:38 60.32541 24.96390 174 ft 1 kts 150°
2026-04-23 19:38 60.32522 24.96412 174 ft 6 kts 149°
2026-04-23 19:39 60.32464 24.96481 174 ft 13 kts 150°
2026-04-23 19:39 60.32390 24.96566 175 ft 12 kts 150°
2026-04-23 19:39 60.32298 24.96674 168 ft 19 kts 149°
2026-04-23 19:39 60.32175 24.96814 166 ft 21 kts 150°
2026-04-23 19:40 60.32045 24.96965 166 ft 20 kts 151°
2026-04-23 19:40 60.31924 24.97094 166 ft 20 kts 153°
2026-04-23 19:40 60.31799 24.97220 166 ft 18 kts 153°
2026-04-23 19:40 60.31694 24.97329 166 ft 16 kts 152°
2026-04-23 19:41 60.31635 24.97391 166 ft 3 kts 160°
2026-04-23 19:41 60.31623 24.97381 166 ft 2 kts 211°
2026-04-23 19:41 60.31609 24.97340 167 ft 6 kts 238°
2026-04-23 19:41 60.31597 24.97292 167 ft 0 kts 242°